Location: Cedar Ridge
(38.0658°N, 120.2769°W)
Time: 22:39:50
(UTC+00:00)

Cosmos 2333 - Pass Details

Date: 10 September 2024
Orbit: 830 x 863 km, 70.9° (Epoch: 12 October)

Event Time Altitude Azimuth Distance (km) Brightness Sun altitude
Rises 12:49:37 0° 331° (NNW) 3,416 7.2 -10.4°
Reaches altitude 10° 12:52:09 10° 327° (NNW) 2,472 6.4 -9.9°
Maximum altitude 12:57:35 50° 253° (WSW) 1,061 4.4 -8.9°
Drops below altitude 10° 13:02:58 10° 179° (S) 2,436 6.5 -7.9°
Sets 13:05:26 0° 174° (S) 3,363 7.3 -7.4°
